Wetterdaten: Sonntag, 11.01.2015
Datum Zeit Temp. A. Feuchte A. Luftdruck Regen Wind Richtung Richtung Sonnenschein ET UV Solar Taupunkt Windchill Windben Empfang
11.01.2015 00:00 13,6 C 49 % 1009,2 hPa 0,0 l/m 14,8 km/h (3 Bft) W-SW 244 0 min 0,000 mm 0,0 UV-I 0 W/m 3,1 C 9,6 C 24,1 km/h (4 Bft) 0,00 %
11.01.2015 00:15 13,5 C 49 % 1008,8 hPa 0,0 l/m 21,6 km/h (4 Bft) NW 320 0 min 0,000 mm 0,0 UV-I 0 W/m 3,0 C 7,4 C 28,1 km/h (4 Bft) 0,00 %
11.01.2015 00:30 13,4 C 49 % 1008,8 hPa 0,0 l/m 11,5 km/h (2 Bft) NW 315 0 min 0,000 mm 0,0 UV-I 0 W/m 2,9 C 10,6 C 19,8 km/h (3 Bft) 0,00 %
11.01.2015 00:45 13,3 C 51 % 1008,5 hPa 0,0 l/m 10,4 km/h (2 Bft) W-SW 251 0 min 0,000 mm 0,0 UV-I 0 W/m 3,4 C 11,0 C 15,8 km/h (3 Bft) 0,00 %
11.01.2015 01:00 13,4 C 49 % 1008,5 hPa 0,0 l/m 13,0 km/h (3 Bft) W-SW 256 0 min 0,000 mm 0,0 UV-I 0 W/m 2,9 C 10,0 C 19,8 km/h (3 Bft) 0,00 %
11.01.2015 01:15 13,1 C 51 % 1008,7 hPa 0,0 l/m 5,8 km/h (2 Bft) S-SO 168 0 min 0,000 mm 0,0 UV-I 0 W/m 3,2 C 13,1 C 7,9 km/h (2 Bft) 0,00 %
11.01.2015 01:30 13,0 C 51 % 1009,0 hPa 0,0 l/m 10,8 km/h (2 Bft) W-NW 294 0 min 0,000 mm 0,0 UV-I 0 W/m 3,1 C 10,5 C 15,8 km/h (3 Bft) 0,00 %
11.01.2015 01:45 12,4 C 55 % 1008,9 hPa 0,0 l/m 6,5 km/h (2 Bft) SW 218 0 min 0,000 mm 0,0 UV-I 0 W/m 3,6 C 12,4 C 7,9 km/h (2 Bft) 0,00 %
11.01.2015 02:00 10,4 C 74 % 1010,3 hPa 0,0 l/m 1,8 km/h (1 Bft) W-SW 256 0 min 0,000 mm 0,0 UV-I 0 W/m 6,0 C 10,4 C 4,0 km/h (1 Bft) 0,00 %
11.01.2015 02:15 8,7 C 77 % 1011,0 hPa 0,0 l/m 6,8 km/h (2 Bft) W 267 0 min 0,000 mm 0,0 UV-I 0 W/m 4,9 C 8,4 C 11,9 km/h (2 Bft) 0,00 %
11.01.2015 02:30 8,2 C 78 % 1011,1 hPa 0,3 l/m 1,4 km/h (1 Bft) SW 233 0 min 0,000 mm 0,0 UV-I 0 W/m 4,6 C 8,2 C 4,0 km/h (1 Bft) 0,00 %
11.01.2015 02:45 7,8 C 80 % 1011,4 hPa 0,0 l/m 9,7 km/h (2 Bft) SW 234 0 min 0,000 mm 0,0 UV-I 0 W/m 4,6 C 5,4 C 15,8 km/h (3 Bft) 0,00 %
11.01.2015 03:00 7,6 C 81 % 1011,3 hPa 0,3 l/m 0,7 km/h (0 Bft) SW 232 0 min 0,000 mm 0,0 UV-I 0 W/m 4,6 C 7,6 C 4,0 km/h (1 Bft) 0,00 %
11.01.2015 03:15 7,1 C 78 % 1011,6 hPa 0,0 l/m 5,8 km/h (2 Bft) W-SW 255 0 min 0,000 mm 0,0 UV-I 0 W/m 3,5 C 7,1 C 7,9 km/h (2 Bft) 0,00 %
11.01.2015 03:30 6,7 C 74 % 1011,3 hPa 0,0 l/m 6,5 km/h (2 Bft) SW 231 0 min 0,000 mm 0,0 UV-I 0 W/m 2,4 C 6,6 C 11,9 km/h (2 Bft) 0,00 %
11.01.2015 03:45 6,2 C 78 % 1011,5 hPa 0,0 l/m 6,5 km/h (2 Bft) W-SW 255 0 min 0,000 mm 0,0 UV-I 0 W/m 2,7 C 6,1 C 11,9 km/h (2 Bft) 0,00 %
11.01.2015 04:00 6,1 C 78 % 1011,2 hPa 0,0 l/m 4,7 km/h (1 Bft) W-SW 252 0 min 0,000 mm 0,0 UV-I 0 W/m 2,6 C 6,1 C 7,9 km/h (2 Bft) 0,00 %
11.01.2015 04:15 6,0 C 78 % 1011,3 hPa 0,0 l/m 1,4 km/h (1 Bft) O-NO 77 0 min 0,000 mm 0,0 UV-I 0 W/m 2,5 C 6,0 C 4,0 km/h (1 Bft) 0,00 %
11.01.2015 04:30 5,9 C 80 % 1011,4 hPa 0,3 l/m 4,0 km/h (1 Bft) W-SW 256 0 min 0,000 mm 0,0 UV-I 0 W/m 2,7 C 5,9 C 7,9 km/h (2 Bft) 0,00 %
11.01.2015 04:45 5,9 C 80 % 1011,5 hPa 0,0 l/m 1,8 km/h (1 Bft) SW 216 0 min 0,000 mm 0,0 UV-I 0 W/m 2,7 C 5,9 C 4,0 km/h (1 Bft) 0,00 %
11.01.2015 05:00 5,8 C 81 % 1011,6 hPa 0,6 l/m 1,8 km/h (1 Bft) SW 226 0 min 0,000 mm 0,0 UV-I 0 W/m 2,8 C 5,8 C 4,0 km/h (1 Bft) 0,00 %
11.01.2015 05:15 5,7 C 81 % 1011,6 hPa 0,3 l/m 1,4 km/h (1 Bft) S-SW 194 0 min 0,000 mm 0,0 UV-I 0 W/m 2,7 C 5,7 C 4,0 km/h (1 Bft) 0,00 %
11.01.2015 05:30 5,6 C 82 % 1011,2 hPa 0,6 l/m 0,0 km/h (0 Bft) W-SW 255 0 min 0,000 mm 0,0 UV-I 0 W/m 2,8 C 5,6 C 0,0 km/h (0 Bft) 0,00 %
11.01.2015 05:45 5,3 C 83 % 1011,5 hPa 0,9 l/m 0,7 km/h (0 Bft) SW 224 0 min 0,000 mm 0,0 UV-I 0 W/m 2,7 C 5,3 C 4,0 km/h (1 Bft) 0,00 %
11.01.2015 06:00 5,1 C 83 % 1011,2 hPa 0,9 l/m 0,0 km/h (0 Bft) S 191 0 min 0,000 mm 0,0 UV-I 0 W/m 2,5 C 5,1 C 0,0 km/h (0 Bft) 0,00 %
11.01.2015 06:15 5,0 C 83 % 1011,2 hPa 0,6 l/m 1,8 km/h (1 Bft) W-SW 254 0 min 0,000 mm 0,0 UV-I 0 W/m 2,4 C 5,0 C 4,0 km/h (1 Bft) 0,00 %
11.01.2015 06:30 5,0 C 84 % 1011,3 hPa 0,3 l/m 3,2 km/h (1 Bft) W-SW 256 0 min 0,000 mm 0,0 UV-I 0 W/m 2,5 C 5,0 C 4,0 km/h (1 Bft) 0,00 %
11.01.2015 06:45 5,1 C 83 % 1011,7 hPa 0,3 l/m 1,4 km/h (1 Bft) S 178 0 min 0,000 mm 0,0 UV-I 0 W/m 2,5 C 5,1 C 4,0 km/h (1 Bft) 0,00 %
11.01.2015 07:00 4,8 C 82 % 1012,1 hPa 0,6 l/m 2,2 km/h (1 Bft) W-SW 256 0 min 0,000 mm 0,0 UV-I 0 W/m 2,0 C 4,8 C 4,0 km/h (1 Bft) 0,00 %
11.01.2015 07:15 4,3 C 83 % 1012,4 hPa 0,3 l/m 2,2 km/h (1 Bft) N-NO 21 0 min 0,000 mm 0,0 UV-I 0 W/m 1,7 C 4,3 C 4,0 km/h (1 Bft) 0,00 %
11.01.2015 07:30 4,0 C 83 % 1012,4 hPa 0,3 l/m 14,4 km/h (3 Bft) W-SW 253 0 min 0,000 mm 0,0 UV-I 0 W/m 1,4 C -1,8 C 15,8 km/h (3 Bft) 0,00 %
11.01.2015 07:45 3,7 C 83 % 1012,7 hPa 0,3 l/m 1,4 km/h (1 Bft) W-SW 256 0 min 0,000 mm 0,0 UV-I 0 W/m 1,1 C 3,7 C 4,0 km/h (1 Bft) 0,00 %
11.01.2015 08:00 3,4 C 83 % 1012,9 hPa 0,0 l/m 10,8 km/h (2 Bft) W-SW 251 0 min 0,000 mm 0,0 UV-I 0 W/m 0,8 C -0,3 C 19,8 km/h (3 Bft) 0,00 %
11.01.2015 08:15 3,2 C 83 % 1013,5 hPa 0,3 l/m 4,0 km/h (1 Bft) W-SW 255 0 min 0,000 mm 0,0 UV-I 0 W/m 0,6 C 3,2 C 7,9 km/h (2 Bft) 0,00 %
11.01.2015 08:30 3,2 C 83 % 1013,7 hPa 0,0 l/m 1,8 km/h (1 Bft) S-SW 195 0 min 0,000 mm 0,0 UV-I 0 W/m 0,6 C 3,2 C 4,0 km/h (1 Bft) 0,00 %
11.01.2015 08:45 3,1 C 83 % 1013,8 hPa 0,3 l/m 0,0 km/h (0 Bft) SW 230 0 min 0,000 mm 0,0 UV-I 2 W/m 0,5 C 3,1 C 0,0 km/h (0 Bft) 0,00 %
11.01.2015 09:00 2,9 C 83 % 1014,5 hPa 0,3 l/m 4,3 km/h (1 Bft) N-NO 20 0 min 0,000 mm 0,0 UV-I 6 W/m 0,3 C 2,9 C 7,9 km/h (2 Bft) 0,00 %
11.01.2015 09:15 2,7 C 83 % 1014,6 hPa 0,3 l/m 6,8 km/h (2 Bft) W-SW 255 0 min 0,000 mm 0,0 UV-I 8 W/m 0,1 C 2,3 C 15,8 km/h (3 Bft) 0,00 %
11.01.2015 09:30 2,5 C 83 % 1015,1 hPa 0,3 l/m 13,0 km/h (3 Bft) W-NW 301 0 min 0,000 mm 0,0 UV-I 16 W/m -0,1 C -2,8 C 19,8 km/h (3 Bft) 0,00 %
11.01.2015 09:45 2,1 C 79 % 1015,5 hPa 0,9 l/m 2,2 km/h (1 Bft) W-NW 292 0 min 0,000 mm 0,0 UV-I 16 W/m -1,2 C 2,1 C 4,0 km/h (1 Bft) 0,00 %
11.01.2015 10:00 1,0 C 80 % 1015,9 hPa 0,3 l/m 1,4 km/h (1 Bft) SW 230 0 min 0,000 mm 0,0 UV-I 19 W/m -2,1 C 1,0 C 4,0 km/h (1 Bft) 0,00 %
11.01.2015 10:15 0,5 C 81 % 1016,9 hPa 0,0 l/m 3,2 km/h (1 Bft) SW 226 0 min 0,000 mm 0,0 UV-I 36 W/m -2,4 C 0,5 C 4,0 km/h (1 Bft) 0,00 %
11.01.2015 10:30 0,5 C 81 % 1017,3 hPa 0,3 l/m 1,8 km/h (1 Bft) W-SW 252 0 min 0,000 mm 0,0 UV-I 18 W/m -2,4 C 0,5 C 4,0 km/h (1 Bft) 0,00 %
11.01.2015 10:45 1,0 C 81 % 1017,3 hPa 0,3 l/m 1,4 km/h (1 Bft) N-NO 31 0 min 0,000 mm 1,0 UV-I 27 W/m -1,9 C 1,0 C 4,0 km/h (1 Bft) 0,00 %
11.01.2015 11:00 1,5 C 79 % 1017,2 hPa 0,3 l/m 5,8 km/h (2 Bft) W-SW 249 0 min 0,000 mm 1,0 UV-I 32 W/m -1,7 C 1,5 C 11,9 km/h (2 Bft) 0,00 %
11.01.2015 11:15 1,7 C 79 % 1017,3 hPa 0,3 l/m 1,8 km/h (1 Bft) W-SW 255 0 min 0,000 mm 1,0 UV-I 39 W/m -1,5 C 1,7 C 4,0 km/h (1 Bft) 0,00 %
11.01.2015 11:30 1,5 C 78 % 1017,5 hPa 0,0 l/m 2,9 km/h (1 Bft) W-SW 254 0 min 0,000 mm 1,0 UV-I 48 W/m -1,9 C 1,5 C 7,9 km/h (2 Bft) 0,00 %
11.01.2015 11:45 1,5 C 78 % 1017,6 hPa 0,0 l/m 9,0 km/h (2 Bft) W-SW 255 0 min 0,000 mm 1,0 UV-I 41 W/m -1,9 C -1,0 C 11,9 km/h (2 Bft) 0,00 %
11.01.2015 12:00 1,3 C 79 % 1018,2 hPa 0,0 l/m 5,8 km/h (2 Bft) S-SO 168 0 min 0,000 mm 0,0 UV-I 42 W/m -1,9 C 1,3 C 7,9 km/h (2 Bft) 0,00 %
11.01.2015 12:15 0,6 C 80 % 1018,5 hPa 0,0 l/m 18,4 km/h (3 Bft) W-SW 251 0 min 0,000 mm 0,0 UV-I 22 W/m -2,4 C -8,1 C 19,8 km/h (3 Bft) 0,00 %
11.01.2015 12:30 0,6 C 80 % 1018,8 hPa 0,3 l/m 1,8 km/h (1 Bft) W 278 0 min 0,000 mm 1,0 UV-I 31 W/m -2,4 C 0,6 C 4,0 km/h (1 Bft) 0,00 %
11.01.2015 12:45 1,4 C 76 % 1018,5 hPa 0,0 l/m 5,8 km/h (2 Bft) W 264 0 min 0,000 mm 1,0 UV-I 55 W/m -2,4 C 1,4 C 11,9 km/h (2 Bft) 0,00 %
11.01.2015 13:00 1,8 C 72 % 1018,1 hPa 0,0 l/m 9,4 km/h (2 Bft) NW 307 0 min 0,000 mm 1,0 UV-I 77 W/m -2,7 C -1,0 C 15,8 km/h (3 Bft) 0,00 %
11.01.2015 13:15 2,1 C 70 % 1018,0 hPa 0,0 l/m 6,5 km/h (2 Bft) SO 128 0 min 0,000 mm 1,0 UV-I 92 W/m -2,8 C 2,0 C 11,9 km/h (2 Bft) 0,00 %
11.01.2015 13:30 2,4 C 72 % 1017,8 hPa 0,0 l/m 12,2 km/h (2 Bft) NO 53 0 min 0,000 mm 1,0 UV-I 98 W/m -2,1 C -2,4 C 19,8 km/h (3 Bft) 0,00 %
11.01.2015 13:45 2,7 C 71 % 1017,7 hPa 0,0 l/m 7,2 km/h (2 Bft) S 175 0 min 0,000 mm 1,0 UV-I 118 W/m -2,0 C 1,9 C 15,8 km/h (3 Bft) 0,00 %
11.01.2015 14:00 2,6 C 71 % 1018,3 hPa 0,0 l/m 9,7 km/h (2 Bft) W 277 15 min 0,000 mm 1,0 UV-I 199 W/m -2,1 C -0,3 C 15,8 km/h (3 Bft) 0,00 %
11.01.2015 14:15 2,5 C 71 % 1018,0 hPa 0,0 l/m 5,4 km/h (1 Bft) W-SW 256 15 min 0,000 mm 1,0 UV-I 189 W/m -2,2 C 2,5 C 11,9 km/h (2 Bft) 0,00 %
11.01.2015 14:30 2,4 C 69 % 1018,0 hPa 0,0 l/m 2,9 km/h (1 Bft) NW 307 15 min 0,000 mm 1,0 UV-I 211 W/m -2,7 C 2,4 C 7,9 km/h (2 Bft) 0,00 %
11.01.2015 14:45 2,3 C 68 % 1017,7 hPa 0,0 l/m 1,4 km/h (1 Bft) S 175 15 min 0,000 mm 1,0 UV-I 222 W/m -3,0 C 2,3 C 4,0 km/h (1 Bft) 0,00 %
11.01.2015 15:00 2,4 C 70 % 1017,7 hPa 0,0 l/m 8,3 km/h (2 Bft) W 281 15 min 0,000 mm 1,0 UV-I 219 W/m -2,5 C 0,6 C 15,8 km/h (3 Bft) 0,00 %
11.01.2015 15:15 1,9 C 69 % 1017,7 hPa 0,0 l/m 5,4 km/h (1 Bft) W-SW 252 0 min 0,000 mm 1,0 UV-I 53 W/m -3,2 C 1,9 C 7,9 km/h (2 Bft) 0,00 %
11.01.2015 15:30 1,8 C 69 % 1018,0 hPa 0,0 l/m 1,4 km/h (1 Bft) SW 229 0 min 0,000 mm 0,0 UV-I 38 W/m -3,3 C 1,8 C 4,0 km/h (1 Bft) 0,00 %
11.01.2015 15:45 2,0 C 70 % 1018,0 hPa 0,0 l/m 19,1 km/h (3 Bft) NW 324 0 min 0,000 mm 0,0 UV-I 21 W/m -2,9 C -6,6 C 28,1 km/h (4 Bft) 0,00 %
11.01.2015 16:00 1,7 C 73 % 1018,2 hPa 0,0 l/m 5,4 km/h (1 Bft) SW 225 0 min 0,000 mm 0,0 UV-I 2 W/m -2,6 C 1,7 C 7,9 km/h (2 Bft) 0,00 %
11.01.2015 16:15 0,9 C 76 % 1018,7 hPa 0,0 l/m 2,9 km/h (1 Bft) O-SO 104 0 min 0,000 mm 0,0 UV-I 0 W/m -2,8 C 0,9 C 11,9 km/h (2 Bft) 0,00 %
11.01.2015 16:30 0,7 C 77 % 1018,4 hPa 0,0 l/m 0,7 km/h (0 Bft) NW 326 0 min 0,000 mm 0,0 UV-I 0 W/m -2,9 C 0,7 C 4,0 km/h (1 Bft) 0,00 %
11.01.2015 16:45 0,7 C 76 % 1018,3 hPa 0,0 l/m 6,5 km/h (2 Bft) W-SW 250 0 min 0,000 mm 0,0 UV-I 0 W/m -3,0 C 0,6 C 11,9 km/h (2 Bft) 0,00 %
11.01.2015 17:00 1,1 C 72 % 1018,1 hPa 0,0 l/m 11,5 km/h (2 Bft) S-SW 211 0 min 0,000 mm 0,0 UV-I 0 W/m -3,4 C -3,4 C 15,8 km/h (3 Bft) 0,00 %
11.01.2015 17:15 1,2 C 69 % 1018,6 hPa 0,0 l/m 6,8 km/h (2 Bft) W-SW 252 0 min 0,000 mm 0,0 UV-I 0 W/m -3,8 C 0,8 C 11,9 km/h (2 Bft) 0,00 %
11.01.2015 17:30 1,5 C 65 % 1018,6 hPa 0,0 l/m 18,4 km/h (3 Bft) W-NW 283 0 min 0,000 mm 0,0 UV-I 0 W/m -4,3 C -7,0 C 24,1 km/h (4 Bft) 0,00 %
11.01.2015 17:45 1,5 C 65 % 1018,9 hPa 0,0 l/m 9,0 km/h (2 Bft) W 278 0 min 0,000 mm 0,0 UV-I 0 W/m -4,3 C -1,0 C 11,9 km/h (2 Bft) 0,00 %
11.01.2015 18:00 1,5 C 64 % 1018,9 hPa 0,0 l/m 3,2 km/h (1 Bft) W-SW 250 0 min 0,000 mm 0,0 UV-I 0 W/m -4,6 C 1,5 C 7,9 km/h (2 Bft) 0,00 %
11.01.2015 18:15 1,4 C 65 % 1019,0 hPa 0,0 l/m 15,5 km/h (3 Bft) NW 322 0 min 0,000 mm 0,0 UV-I 0 W/m -4,4 C -5,6 C 28,1 km/h (4 Bft) 0,00 %
11.01.2015 18:30 1,5 C 64 % 1019,2 hPa 0,0 l/m 7,9 km/h (2 Bft) W-SW 251 0 min 0,000 mm 0,0 UV-I 0 W/m -4,6 C 0,0 C 7,9 km/h (2 Bft) 0,00 %
11.01.2015 18:45 1,5 C 63 % 1019,4 hPa 0,0 l/m 4,7 km/h (1 Bft) W-NW 287 0 min 0,000 mm 0,0 UV-I 0 W/m -4,8 C 1,5 C 11,9 km/h (2 Bft) 0,00 %
11.01.2015 19:00 1,7 C 62 % 1019,4 hPa 0,0 l/m 10,8 km/h (2 Bft) W-SW 253 0 min 0,000 mm 0,0 UV-I 0 W/m -4,8 C -2,2 C 15,8 km/h (3 Bft) 0,00 %
11.01.2015 19:15 1,8 C 61 % 1020,0 hPa 0,0 l/m 10,8 km/h (2 Bft) W-SW 254 0 min 0,000 mm 0,0 UV-I 0 W/m -4,9 C -2,1 C 19,8 km/h (3 Bft) 0,00 %
11.01.2015 19:30 1,9 C 62 % 1019,9 hPa 0,0 l/m 25,6 km/h (4 Bft) W 265 0 min 0,000 mm 0,0 UV-I 0 W/m -4,6 C -9,4 C 32,0 km/h (5 Bft) 0,00 %
11.01.2015 19:45 1,7 C 62 % 1020,3 hPa 0,0 l/m 11,9 km/h (2 Bft) SW 214 0 min 0,000 mm 0,0 UV-I 0 W/m -4,8 C -3,0 C 15,8 km/h (3 Bft) 0,00 %
11.01.2015 20:00 1,7 C 62 % 1020,5 hPa 0,0 l/m 14,4 km/h (3 Bft) W-SW 252 0 min 0,000 mm 0,0 UV-I 0 W/m -4,8 C -4,6 C 19,8 km/h (3 Bft) 0,00 %
11.01.2015 20:15 1,9 C 60 % 1021,2 hPa 0,0 l/m 12,2 km/h (2 Bft) SW 224 0 min 0,000 mm 0,0 UV-I 0 W/m -5,0 C -2,9 C 24,1 km/h (4 Bft) 0,00 %
11.01.2015 20:30 2,2 C 60 % 1021,4 hPa 0,0 l/m 4,3 km/h (1 Bft) S 186 0 min 0,000 mm 0,0 UV-I 0 W/m -4,7 C 2,2 C 11,9 km/h (2 Bft) 0,00 %
11.01.2015 20:45 2,1 C 61 % 1021,5 hPa 0,0 l/m 11,5 km/h (2 Bft) W 261 0 min 0,000 mm 0,0 UV-I 0 W/m -4,6 C -2,2 C 15,8 km/h (3 Bft) 0,00 %
11.01.2015 21:00 2,2 C 60 % 1021,7 hPa 0,0 l/m 12,2 km/h (2 Bft) W-SW 253 0 min 0,000 mm 0,0 UV-I 0 W/m -4,7 C -2,6 C 19,8 km/h (3 Bft) 0,00 %
11.01.2015 21:15 2,2 C 60 % 1021,8 hPa 0,0 l/m 1,8 km/h (1 Bft) W-SW 255 0 min 0,000 mm 0,0 UV-I 0 W/m -4,7 C 2,2 C 4,0 km/h (1 Bft) 0,00 %
11.01.2015 21:30 2,2 C 60 % 1022,0 hPa 0,0 l/m 2,2 km/h (1 Bft) SW 216 0 min 0,000 mm 0,0 UV-I 0 W/m -4,7 C 2,2 C 4,0 km/h (1 Bft) 0,00 %
11.01.2015 21:45 2,2 C 59 % 1021,9 hPa 0,0 l/m 15,8 km/h (3 Bft) NW 305 0 min 0,000 mm 0,0 UV-I 0 W/m -5,0 C -4,8 C 24,1 km/h (4 Bft) 0,00 %
11.01.2015 22:00 2,2 C 59 % 1022,1 hPa 0,0 l/m 14,4 km/h (3 Bft) W-NW 295 0 min 0,000 mm 0,0 UV-I 0 W/m -5,0 C -4,0 C 24,1 km/h (4 Bft) 0,00 %
11.01.2015 22:15 2,2 C 60 % 1022,5 hPa 0,0 l/m 1,8 km/h (1 Bft) W-SW 256 0 min 0,000 mm 0,0 UV-I 0 W/m -4,7 C 2,2 C 4,0 km/h (1 Bft) 0,00 %
11.01.2015 22:30 2,3 C 60 % 1022,6 hPa 0,0 l/m 7,9 km/h (2 Bft) W-SW 251 0 min 0,000 mm 0,0 UV-I 0 W/m -4,6 C 0,9 C 15,8 km/h (3 Bft) 0,00 %
11.01.2015 22:45 2,3 C 60 % 1022,2 hPa 0,0 l/m 4,3 km/h (1 Bft) NO 49 0 min 0,000 mm 0,0 UV-I 0 W/m -4,6 C 2,3 C 7,9 km/h (2 Bft) 0,00 %
11.01.2015 23:00 2,2 C 59 % 1022,8 hPa 0,0 l/m 1,8 km/h (1 Bft) W-SW 256 0 min 0,000 mm 0,0 UV-I 0 W/m -5,0 C 2,2 C 4,0 km/h (1 Bft) 0,00 %
11.01.2015 23:15 2,4 C 63 % 1023,0 hPa 0,0 l/m 6,5 km/h (2 Bft) W-NW 289 0 min 0,000 mm 0,0 UV-I 0 W/m -3,9 C 2,3 C 11,9 km/h (2 Bft) 0,00 %
11.01.2015 23:30 2,4 C 63 % 1023,0 hPa 0,0 l/m 11,9 km/h (2 Bft) W-SW 255 0 min 0,000 mm 0,0 UV-I 0 W/m -3,9 C -2,2 C 15,8 km/h (3 Bft) 0,00 %
11.01.2015 23:45 2,5 C 63 % 1022,9 hPa 0,0 l/m 12,2 km/h (2 Bft) W-SW 255 0 min 0,000 mm 0,0 UV-I 0 W/m -3,8 C -2,3 C 15,8 km/h (3 Bft) 0,00 %
_ Min-Zeit 10:15 00:00 00:45 - 05:30 - - - - - - 20:15 19:30 05:30 00:00
Minimum _ 0,5 C 49 % 1008,5 hPa - 0,0 km/h (0 Bft) - - - - - - -5,0 C -9,4 C 0,0 km/h (0 Bft) 0,00 %
_ Max-Zeit 00:00 06:30 23:15 05:45 19:30 - - 14:00 00:00 10:45 14:45 02:00 01:15 19:30 00:00
Maximum _ 13,6 C 84 % 1023,0 hPa 0,9 l/m 25,6 km/h
W (4 Bft)
- - 15 min 0,000 mm 1,0 UV-I 222 W/m 6,0 C 13,1 C 32,0 km/h
W (5 Bft)
0,00 %
Durchschnitt _ 3,8 C 71 % 1016,1 hPa #11,1 l/m 6,7 km/h (2 Bft) W-SW - #1:15 h #0,000 mm 1,0 UV-I 67 W/m -1,1 C 2,1 C 11,1 km/h (2 Bft) 0,00 %